Terug naar catalogus

GLOBALSTAR M032

ActiefCommunicatieMEO
NORAD 25852·PAYLOAD·🇺🇸 United States

Gelanceerd Jul 10, 1999 vanaf Cape Canaveral Space Force Station

Loading…

Volgende Passages (komende 24 uur)

TLE

VersSource: Space-Track

Epoch: Sep 14, 2026, 08:40 UTC

1 25852U 99037B   26257.36123229 -.00000069  00000-0 -85264-4 0  9996
2 25852  51.9940 275.9733 0012251 212.3254 147.6796 11.19074047185635

Volg GLOBALSTAR M032 in realtime met AllMySat

Download on the App Store